Clinton, OK

8:29 AM CDT on April 27, 2017 (GMT -0500)
Clinton Municipal

Weather History for KCLK - June, 2013

Change the Weather History Date:

Thursday, June 6, 2013

  Actual Average (KCSM) Record (KCSM)
Temperature  
Mean Temperature 69 °F -  
Max Temperature 78 °F 84 °F 100 °F (2006)
Min Temperature 60 °F 62 °F 45 °F (1998)
Cooling Degree Days 4    
Growing Degree Days 19 (Base 50)    
Moisture  
Dew Point 51 °F    
Average Humidity 58    
Maximum Humidity 83    
Minimum Humidity 28    
Precipitation  
Precipitation 0.00 in - - ()
Sea Level Pressure  
Sea Level Pressure 30.01 in    
Wind  
Wind Speed 11 mph (NNE)    
Max Wind Speed 18 mph    
Max Gust Speed 23 mph    
Visibility 10 miles    
Events      
Averages and records for this station are not official NWS values.
T = Trace of Precipitation, MM = Missing Value Source: NWS Daily Summary

Daily Weather History Graph

Daily Weather History Graph

Search for Another Location

Airport or City:

Trip Planner

Search our weather history database for the weather conditions in past years. The results will help you decide how hot, cold, wet, or windy it might be!

Date:

Astronomy

Jun. 06, 2013 Rise Set
Actual Time 6:20 AM CDT 8:48 PM CDT
Civil Twilight 5:50 AM CDT 9:18 PM CDT
Nautical Twilight 5:13 AM CDT 9:55 PM CDT
Astronomical Twilight 4:33 AM CDT 10:35 PM CDT
Moon 4:59 AM CDT (6/6) 7:14 PM CDT (6/6)
Length of Visible Light 15h 28m
Length of Day
14h 28m
Waning Crescent, 3% of the Moon is Illuminated
Jun 6
Waning Crescent
Jun 8
New
Jun 16
First Quarter
Jun 23
Full
Jun 29
Last Quarter

Hourly Weather History & Observations

Time (CDT) Temp. Dew Point Humidity Pressure Visibility Wind Dir Wind Speed Gust Speed Precip Events Conditions
12:15 AM 66.2 °F 59.0 °F 78% 30.01 in 10.0 mi NE 10.4 mph - N/A   Overcast
12:35 AM 66.2 °F 59.0 °F 78% 30.02 in 10.0 mi NE 10.4 mph - N/A   Overcast
12:55 AM 64.4 °F 59.0 °F 83% 30.03 in 10.0 mi NE 8.1 mph - N/A   Overcast
1:15 AM 64.4 °F 59.0 °F 83% 30.03 in 10.0 mi NE 10.4 mph - N/A   Overcast
1:35 AM 64.4 °F 59.0 °F 83% 30.02 in 10.0 mi NNE 15.0 mph - N/A   Overcast
1:55 AM 64.4 °F 59.0 °F 83% 30.02 in 10.0 mi NNE 13.8 mph - N/A   Overcast
2:15 AM 64.4 °F 57.2 °F 77% 30.01 in 10.0 mi NNE 15.0 mph - N/A   Overcast
2:35 AM 64.4 °F 55.4 °F 73% 29.99 in 10.0 mi NNE 18.4 mph 21.9 mph N/A   Overcast
2:55 AM 64.4 °F 55.4 °F 73% 29.99 in 10.0 mi NNE 16.1 mph 23.0 mph N/A   Overcast
3:15 AM 62.6 °F 55.4 °F 77% 29.98 in 10.0 mi NNE 16.1 mph - N/A   Overcast
3:35 AM 62.6 °F 55.4 °F 77% 29.99 in 10.0 mi NNE 15.0 mph - N/A   Overcast
3:55 AM 62.6 °F 55.4 °F 77% 29.98 in 10.0 mi NNE 16.1 mph - N/A   Mostly Cloudy
4:15 AM 62.6 °F 55.4 °F 77% 29.99 in 10.0 mi NNE 13.8 mph - N/A   Scattered Clouds
4:35 AM 62.6 °F 55.4 °F 77% 29.99 in 10.0 mi North 13.8 mph 19.6 mph N/A   Mostly Cloudy
4:55 AM 62.6 °F 55.4 °F 77% 29.99 in 10.0 mi North 11.5 mph - N/A   Mostly Cloudy
5:15 AM 60.8 °F 53.6 °F 77% 30.00 in 10.0 mi North 6.9 mph - N/A   Mostly Cloudy
5:35 AM 60.8 °F 53.6 °F 77% 30.00 in 10.0 mi North 8.1 mph - N/A   Overcast
5:55 AM 60.8 °F 53.6 °F 77% 30.00 in 10.0 mi NNE 10.4 mph - N/A   Overcast
6:15 AM 60.8 °F 51.8 °F 72% 30.01 in 10.0 mi North 9.2 mph - N/A   Overcast
6:35 AM 60.8 °F 51.8 °F 72% 30.01 in 10.0 mi NNE 8.1 mph - N/A   Overcast
6:55 AM 60.8 °F 51.8 °F 72% 30.00 in 10.0 mi NNE 9.2 mph - N/A   Overcast
7:15 AM 60.8 °F 51.8 °F 72% 30.01 in 10.0 mi North 8.1 mph - N/A   Overcast
7:35 AM 60.8 °F 51.8 °F 72% 30.01 in 10.0 mi NNE 9.2 mph - N/A   Overcast
7:55 AM 60.8 °F 51.8 °F 72% 30.01 in 10.0 mi North 13.8 mph - N/A   Overcast
8:15 AM 60.8 °F 51.8 °F 72% 30.01 in 10.0 mi North 16.1 mph - N/A   Scattered Clouds
8:35 AM 62.6 °F 51.8 °F 68% 30.01 in 10.0 mi NNE 13.8 mph 18.4 mph N/A   Clear
8:55 AM 62.6 °F 51.8 °F 68% 30.02 in 10.0 mi North 12.7 mph - N/A   Clear
9:15 AM 62.6 °F 51.8 °F 68% 30.03 in 10.0 mi North 15.0 mph - N/A   Clear
9:35 AM 64.4 °F 51.8 °F 64% 30.03 in 10.0 mi North 11.5 mph - N/A   Clear
9:55 AM 64.4 °F 51.8 °F 64% 30.04 in 10.0 mi North 11.5 mph - N/A   Clear
10:15 AM 64.4 °F 51.8 °F 64% 30.05 in 10.0 mi North 11.5 mph 17.3 mph N/A   Clear
10:35 AM 68.0 °F 51.8 °F 56% 30.05 in 10.0 mi North 6.9 mph 17.3 mph N/A   Clear
10:55 AM 68.0 °F 51.8 °F 56% 30.05 in 10.0 mi North 9.2 mph - N/A   Clear
11:15 AM 69.8 °F 51.8 °F 53% 30.05 in 10.0 mi North 8.1 mph - N/A   Scattered Clouds
11:35 AM 69.8 °F 51.8 °F 53% 30.05 in 10.0 mi North 11.5 mph 16.1 mph N/A   Scattered Clouds
11:55 AM 69.8 °F 51.8 °F 53% 30.04 in 10.0 mi NNE 13.8 mph 17.3 mph N/A   Scattered Clouds
12:15 PM 71.6 °F 51.8 °F 50% 30.04 in 10.0 mi North 8.1 mph 18.4 mph N/A   Clear
12:35 PM 71.6 °F 51.8 °F 50% 30.04 in 10.0 mi North 10.4 mph - N/A   Clear
12:55 PM 71.6 °F 51.8 °F 50% 30.03 in 10.0 mi North 15.0 mph - N/A   Clear
1:15 PM 73.4 °F 51.8 °F 47% 30.03 in 10.0 mi North 12.7 mph 16.1 mph N/A   Clear
1:35 PM 73.4 °F 51.8 °F 47% 30.03 in 10.0 mi North 12.7 mph 17.3 mph N/A   Clear
1:55 PM 73.4 °F 51.8 °F 47% 30.03 in 10.0 mi North 15.0 mph - N/A   Clear
2:15 PM 77.0 °F 50.0 °F 39% 30.03 in 10.0 mi North 11.5 mph 19.6 mph N/A   Clear
2:35 PM 77.0 °F 48.2 °F 36% 30.03 in 10.0 mi NNE 11.5 mph - N/A   Scattered Clouds
2:55 PM 77.0 °F 48.2 °F 36% 30.02 in 10.0 mi North 10.4 mph - N/A   Clear
3:15 PM 77.0 °F 48.2 °F 36% 30.01 in 10.0 mi NE 9.2 mph 18.4 mph N/A   Scattered Clouds
3:35 PM 77.0 °F 50.0 °F 39% 30.01 in 10.0 mi North 15.0 mph - N/A   Scattered Clouds
3:55 PM 77.0 °F 48.2 °F 36% 30.00 in 10.0 mi North 9.2 mph 21.9 mph N/A   Clear
4:15 PM 77.0 °F 46.4 °F 34% 30.00 in 10.0 mi NNE 11.5 mph 17.3 mph N/A   Scattered Clouds
4:35 PM 77.0 °F 46.4 °F 34% 29.99 in 10.0 mi North 13.8 mph 18.4 mph N/A   Clear
4:55 PM 77.0 °F 44.6 °F 32% 29.98 in 10.0 mi ENE 10.4 mph 19.6 mph N/A   Clear
5:15 PM 77.0 °F 44.6 °F 32% 29.98 in 10.0 mi North 9.2 mph - N/A   Clear
5:35 PM 78.8 °F 44.6 °F 30% 29.98 in 10.0 mi NNE 9.2 mph - N/A   Clear
5:55 PM 77.0 °F 42.8 °F 29% 29.97 in 10.0 mi North 5.8 mph - N/A   Clear
6:15 PM 77.0 °F 42.8 °F 29% 29.97 in 10.0 mi NE 9.2 mph 17.3 mph N/A   Clear
6:35 PM 77.0 °F 42.8 °F 29% 29.96 in 10.0 mi NNE 10.4 mph - N/A   Clear
6:55 PM 77.0 °F 42.8 °F 29% 29.96 in 10.0 mi North 9.2 mph - N/A   Clear
7:15 PM 77.0 °F 41.0 °F 28% 29.96 in 10.0 mi NNE 8.1 mph - N/A   Clear
7:35 PM 77.0 °F 41.0 °F 28% 29.97 in 10.0 mi NE 11.5 mph - N/A   Clear
7:55 PM 75.2 °F 42.8 °F 31% 29.97 in 10.0 mi NE 10.4 mph - N/A   Clear
8:15 PM 73.4 °F 44.6 °F 36% 29.98 in 10.0 mi NE 8.1 mph - N/A   Clear
8:35 PM 71.6 °F 46.4 °F 41% 29.99 in 10.0 mi NE 6.9 mph - N/A   Clear
8:55 PM 68.0 °F 50.0 °F 52% 29.99 in 10.0 mi NE 5.8 mph - N/A   Clear
9:15 PM 68.0 °F 50.0 °F 52% 30.00 in 10.0 mi NE 6.9 mph - N/A   Clear
9:35 PM 64.4 °F 50.0 °F 59% 30.00 in 10.0 mi NE 8.1 mph - N/A   Clear
9:55 PM 64.4 °F 51.8 °F 64% 30.01 in 10.0 mi NE 6.9 mph - N/A   Clear
10:15 PM 62.6 °F 51.8 °F 68% 30.02 in 10.0 mi ENE 5.8 mph - N/A   Clear
10:35 PM 62.6 °F 51.8 °F 68% 30.02 in 10.0 mi East 4.6 mph - N/A   Clear
10:55 PM 62.6 °F 51.8 °F 68% 30.03 in 10.0 mi East 5.8 mph - N/A   Clear
11:15 PM 62.6 °F 51.8 °F 68% 30.03 in 10.0 mi East 5.8 mph - N/A   Clear
11:35 PM 60.8 °F 51.8 °F 72% 30.03 in 10.0 mi East 4.6 mph - N/A   Clear
11:55 PM 60.8 °F 51.8 °F 72% 30.04 in 10.0 mi East 4.6 mph - N/A   Clear